Location: Newark
(29.9790°N, 31.1340°E)
Time: 01:56:54
(UTC+00:00)

Vanguard 3 - Pass Details

Date: 20 January 2020
Orbit: 508 x 3263 km, 33.3° (Epoch: 25 February)

Event Time Altitude Azimuth Distance (km) Brightness Sun altitude
Rises 20:04:19 0° 279° (W) 6,801 12.3 -60.7°
Reaches altitude 10° 20:09:24 10° 280° (W) 5,464 11.6 -61.8°
Enters shadow 20:16:27 30° 285° (WNW) 3,523 10.4 -63.3°
